Middle Wallop, United Kingdom

5:06 AM GMT on February 07, 2016 (GMT +0000)
Middle Wallop Army

Weather History for EGVP - March, 2013

Change the Weather History Date:

Sunday, March 17, 2013

  Actual Average (EGDM) Record (EGDM)
Temperature  
Mean Temperature 36 °F -  
Max Temperature 40 °F 50 °F 66 °F (1999)
Min Temperature 32 °F 38 °F 30 °F (2013)
Degree Days  
Heating Degree Days 29    
Moisture  
Dew Point 34 °F    
Average Humidity 89    
Maximum Humidity 100    
Minimum Humidity 78    
Precipitation  
Precipitation 0.39 in - - ()
Sea Level Pressure  
Sea Level Pressure 29.22 in    
Wind  
Wind Speed 5 mph ()    
Max Wind Speed 13 mph    
Max Gust Speed -    
Visibility 6.2 miles    
Events      
Averages and records for this station are not official NWS values.
T = Trace of Precipitation, MM = Missing Value Source: Averaged Metar Reports

Daily Weather History Graph

Daily Weather History Graph

Search for Another Location

Airport or City:

Trip Planner

Search our weather history database for the weather conditions in past years. The results will help you decide how hot, cold, wet, or windy it might be!

Date:

Astronomy

Mar. 17, 2013 Rise Set
Actual Time 6:15 AM GMT 6:14 PM GMT
Civil Twilight 5:42 AM GMT 6:47 PM GMT
Nautical Twilight 5:03 AM GMT 7:26 PM GMT
Astronomical Twilight 4:23 AM GMT 8:06 PM GMT
Moon 8:41 AM GMT (3/17) No Moon Set
Length of Visible Light 13h 04m
Length of Day
11h 58m
Waxing Crescent, 30% of the Moon is Illuminated
Mar 17
Waxing Crescent
Mar 19
First Quarter
Mar 27
Full
Apr 3
Last Quarter
Apr 10
New

Hourly Weather History & Observations

Time (GMT) Temp. Windchill Dew Point Humidity Pressure Visibility Wind Dir Wind Speed Gust Speed Precip Events Conditions
12:50 AM 39.2 °F 33.6 °F 33.8 °F 81% 29.30 in 6.2 mi WSW 8.1 mph - N/A   Overcast
1:50 AM 37.4 °F 33.8 °F 32.0 °F 81% 29.30 in 6.2 mi West 4.6 mph - N/A   Mostly Cloudy
2:50 AM 36 °F - 33 °F 83% 29.31 in 22 mi South 3.5 mph - -   Overcast
2:50 AM 37.4 °F 34.9 °F 32.0 °F 81% 29.30 in 6.2 mi South 3.5 mph - N/A   Overcast
3:50 AM 35.6 °F 30.7 °F 33.8 °F 93% 29.27 in 6.2 mi SE 5.8 mph - N/A   Scattered Clouds
4:50 AM 35.6 °F 32.8 °F 33.8 °F 93% 29.27 in 3.7 mi ESE 3.5 mph - N/A   Mostly Cloudy
5:50 AM 36 °F - 34 °F 89% 29.27 in 5 mi North 3.5 mph - -   Mostly Cloudy
5:50 AM 35.6 °F 32.8 °F 33.8 °F 93% 29.24 in 5.0 mi North 3.5 mph - N/A   Mostly Cloudy
6:50 AM 35.6 °F 30.7 °F 33.8 °F 93% 29.24 in - NNE 5.8 mph - N/A   Mostly Cloudy
7:50 AM 35.6 °F 30.7 °F 33.8 °F 93% 29.21 in 3.1 mi North 5.8 mph - N/A   Mostly Cloudy
8:50 AM 35 °F - 33 °F 92% 29.24 in 11 mi NNW 3.5 mph - -   Mostly Cloudy
8:50 AM 35.6 °F 32.8 °F 33.8 °F 93% 29.21 in 6.2 mi NNW 3.5 mph - N/A   Mostly Cloudy
9:50 AM 35.6 °F 32.8 °F 33.8 °F 93% 29.21 in 1.8 mi NNW 3.5 mph - N/A   Mostly Cloudy
10:50 AM 37.4 °F 32.8 °F 35.6 °F 93% 29.18 in 6.2 mi NNW 5.8 mph - N/A   Mostly Cloudy
11:50 AM 38 °F - 36 °F 89% 29.21 in 8 mi NE 5.8 mph - -   Mostly Cloudy
11:50 AM 39.2 °F 35.0 °F 35.6 °F 87% 29.18 in 6.2 mi NE 5.8 mph - N/A   Mostly Cloudy
12:50 PM 37.4 °F 32.1 °F 33.8 °F 87% 29.18 in 6.2 mi North 6.9 mph - N/A   Overcast
1:50 PM 35.6 °F 28.6 °F 33.8 °F 93% 29.18 in 6.2 mi NNW 9.2 mph - N/A   Overcast
2:50 PM 38 °F - 34 °F 81% 29.19 in 16 mi North 12.7 mph - -   Scattered Clouds
2:50 PM 37.4 °F 29.3 °F 33.8 °F 87% 29.18 in 6.2 mi North 12.7 mph - N/A   Mostly Cloudy
3:50 PM 39.2 °F 32.5 °F 33.8 °F 81% 29.18 in 6.2 mi North 10.4 mph - N/A   Mostly Cloudy
4:50 PM 39.2 °F 35.9 °F 33.8 °F 81% 29.18 in 6.2 mi NNW 4.6 mph - N/A   Scattered Clouds
5:50 PM 39 °F - 35 °F 78% 29.21 in 18 mi NNE 1.2 mph - -   Scattered Clouds
5:50 PM 39.2 °F - 33.8 °F 81% 29.18 in 6.2 mi NNE 1.2 mph - N/A   Partly Cloudy
6:50 PM 35.6 °F 32.8 °F 33.8 °F 93% 29.21 in 6.2 mi South 3.5 mph - N/A   Scattered Clouds
7:50 PM 35.6 °F 31.7 °F 33.8 °F 93% 29.21 in 3.1 mi SSW 4.6 mph - N/A   Mostly Cloudy
8:50 PM 34 °F - 33 °F 92% 29.24 in 4 mi WSW 1.2 mph - -  
8:50 PM 33.8 °F - 32.0 °F 93% 29.21 in 4.3 mi WSW 1.2 mph - N/A   Unknown
9:50 PM 33.8 °F 30.8 °F 33.8 °F 100% 29.21 in 5.0 mi SE 3.5 mph - N/A   Unknown
10:50 PM 33.8 °F - 32.0 °F 93% 29.21 in 4.3 mi ENE 1.2 mph - N/A   Unknown
11:50 PM 32 °F - 31 °F 96% 29.24 in 3 mi NNE 1.2 mph - -  
11:50 PM 32.0 °F - 32.0 °F 100% 29.21 in 2.8 mi NNE 1.2 mph - N/A   Unknown